Volver al catálogo

STARLINK-3622

ActivoComunicacionesVLEO
NORAD 51768·PAYLOAD·🇺🇸 United States

Lanzado Feb 25, 2022 desde Vandenberg Space Force Base

Loading…

Próximos Pases (próximas 24 horas)

TLE

ActualizadoSource: CelesTrak SupGP

Época: Sep 15, 2026, 01:15 UTC

1 51768C 22017A   26258.05256944 -.00026778  00000+0 -79125-3 0  2583
2 51768  53.1601 196.8513 0001368  84.1024   7.9147 15.34400568    10

Sigue STARLINK-3622 en tiempo real con AllMySat

Download on the App Store